sat.trackr.live / text

‹ back to catalog

ARCTICSAT 1 (RS74S)

NORAD 61762 · 2024-199AD

PAYLOAD ACTIVE UNKNOWN

§ Identity

Operator
Country
CIS
Launch date
2024-11-04
Launch site
VOSTO
Launch vehicle
Mass (kg)
RCS (m²)

Purposes: comms

External: N2YO · Heavens-Above · Gunter

§ Orbital elements

Epoch: 2026-06-13T21:59:06.795168Z

Period
88.08 min
Inclination
97.2748°
Eccentricity
0.0010283
Mean motion
16.34840585 rev/d
Perigee alt
172.8 km
Apogee alt
186.3 km
Semi-major
6,557.7 km
B*
9.3372e-4
RAAN
49.1240°
Arg perigee
233.0518°
Mean anomaly
126.9838°
Rev number
13,760

§ Raw data

ARCTICSAT 1 (RS74S)1 61762U 24199AD  26164.91605087  .06613865  24633-5  93372-3 0  99972 61762  97.2748  49.1240 0010283 233.0518 126.9838 16.34840585137605

JSON: /api/v1/satellites/61762 · /tle

For live sub-satellite position, see the globe view (requires WebGL).

§ Visibility from observer

Set your observer location to see the next 7 days of passes ≥ 10°. The values pass through the URL so the page stays shareable.

No JS? Fill the form by hand. The geolocation button needs JavaScript.

§ Radio — SatNOGS DB

ModeDescriptionDownlinkUplink
GMSK USP Mode U - GMSK 19k2 (USP) TLM (inactive) 435.890 MHz
GMSK USP Mode U - GMSK 2k4 (USP) TLM (inactive) 435.890 MHz
SSTV Mode U - Robot 36 SSTV (inactive) 435.890 MHz

3 transmitters · refreshed weekly from db.satnogs.org